Time,TemperatureF,DewpointF,PressureIn,WindDirection,WindDirectionDegrees,WindSpeedMPH,WindSpeedGustMPH,Humidity,HourlyPrecipIn,Conditions,Clouds,dailyrainin,SoftwareType,DateUTC
2013-06-13 00:01:00,49.0,24.0,-100.00,SE,131,1.0,3.0,37,-99.99,,,-99.99,,2013-06-13 07:01:00,
2013-06-13 00:11:00,49.0,22.0,-100.00,ESE,117,1.0,6.0,34,-99.99,,,-99.99,,2013-06-13 07:11:00,
2013-06-13 00:22:00,49.0,22.0,-100.00,ESE,117,1.0,6.0,34,-99.99,,,-99.99,,2013-06-13 07:22:00,
2013-06-13 00:33:00,49.0,22.0,-100.00,ESE,117,1.0,6.0,34,-99.99,,,-99.99,,2013-06-13 07:33:00,
2013-06-13 00:52:00,50.0,20.0,-100.00,East,79,2.0,7.0,30,-99.99,,,-99.99,,2013-06-13 07:52:00,
2013-06-13 01:01:00,50.0,20.0,-100.00,East,79,2.0,7.0,30,-99.99,,,-99.99,,2013-06-13 08:01:00,
2013-06-13 01:11:00,50.0,21.0,-100.00,ENE,68,3.0,8.0,31,-99.99,,,-99.99,,2013-06-13 08:11:00,
2013-06-13 01:21:00,50.0,21.0,-100.00,ENE,68,3.0,8.0,31,-99.99,,,-99.99,,2013-06-13 08:21:00,
2013-06-13 01:32:00,50.0,21.0,-100.00,ENE,68,3.0,8.0,31,-99.99,,,-99.99,,2013-06-13 08:32:00,
2013-06-13 01:42:00,49.0,20.0,-100.00,East,80,3.0,7.0,31,-99.99,,,-99.99,,2013-06-13 08:42:00,
2013-06-13 01:52:00,49.0,20.0,-100.00,East,80,3.0,7.0,31,-99.99,,,-99.99,,2013-06-13 08:52:00,
2013-06-13 02:01:00,48.0,19.0,-100.00,SE,128,2.0,5.0,31,-99.99,,,-99.99,,2013-06-13 09:01:00,
2013-06-13 02:11:00,48.0,19.0,-100.00,SE,128,2.0,5.0,31,-99.99,,,-99.99,,2013-06-13 09:11:00,
2013-06-13 02:22:00,48.0,14.0,-100.00,ESE,104,2.0,7.0,25,-99.99,,,-99.99,,2013-06-13 09:22:00,
2013-06-13 02:32:00,48.0,14.0,-100.00,ESE,104,2.0,7.0,25,-99.99,,,-99.99,,2013-06-13 09:32:00,
2013-06-13 02:42:00,48.0,14.0,-100.00,ESE,104,2.0,7.0,25,-99.99,,,-99.99,,2013-06-13 09:42:00,
2013-06-13 03:01:00,47.0,13.0,-100.00,SE,127,1.0,7.0,25,-99.99,,,-99.99,,2013-06-13 10:01:00,
2013-06-13 03:11:00,47.0,13.0,-100.00,SE,127,1.0,7.0,25,-99.99,,,-99.99,,2013-06-13 10:11:00,
2013-06-13 04:23:00,45.0,4.0,-100.00,SSE,162,1.0,3.0,18,-99.99,,,-99.99,,2013-06-13 11:23:00,
2013-06-13 04:32:00,45.0,4.0,-100.00,SSE,162,1.0,3.0,18,-99.99,,,-99.99,,2013-06-13 11:32:00,
2013-06-13 04:42:00,46.0,8.0,-100.00,SSE,165,1.0,3.0,21,-99.99,,,-99.99,,2013-06-13 11:42:00,
2013-06-13 04:52:00,46.0,8.0,-100.00,SSE,165,1.0,3.0,21,-99.99,,,-99.99,,2013-06-13 11:52:00,
2013-06-13 05:01:00,46.0,8.0,-100.00,SSE,165,1.0,3.0,21,-99.99,,,-99.99,,2013-06-13 12:01:00,
2013-06-13 05:11:00,46.0,8.0,-100.00,SSE,165,1.0,3.0,21,-99.99,,,-99.99,,2013-06-13 12:11:00,
2013-06-13 05:20:00,46.0,8.0,-100.00,East,88,3.0,8.0,21,-99.99,,,-99.99,,2013-06-13 12:20:00,
2013-06-13 05:22:00,46.0,9.0,-100.00,North,-999,-999.0,-999.0,21,-99.99,,,-99.99,,2013-06-13 12:22:00,
2013-06-13 05:34:00,46.0,8.0,-100.00,East,96,2.0,4.0,21,-99.99,,,-99.99,,2013-06-13 12:34:00,
2013-06-13 05:42:00,46.0,8.0,-100.00,East,96,2.0,4.0,21,-99.99,,,-99.99,,2013-06-13 12:42:00,
2013-06-13 05:52:00,46.0,8.0,-100.00,East,88,3.0,8.0,21,-99.99,,,-99.99,,2013-06-13 12:52:00,
2013-06-13 06:01:00,46.0,8.0,-100.00,East,88,3.0,8.0,21,-99.99,,,-99.99,,2013-06-13 13:01:00,
2013-06-13 06:11:00,46.0,8.0,-100.00,East,88,3.0,8.0,21,-99.99,,,-99.99,,2013-06-13 13:11:00,
2013-06-13 06:43:00,45.0,6.0,-100.00,North,-999,-999.0,-999.0,20,-99.99,,,-99.99,,2013-06-13 13:43:00,
2013-06-13 06:53:00,45.0,6.0,-100.00,SE,134,1.0,4.0,20,-99.99,,,-99.99,,2013-06-13 13:53:00,
2013-06-13 07:11:00,46.0,6.0,-100.00,East,97,1.0,3.0,19,-99.99,,,-99.99,,2013-06-13 14:11:00,
2013-06-13 07:43:00,46.0,6.0,-100.00,East,97,1.0,3.0,19,-99.99,,,-99.99,,2013-06-13 14:43:00,
2013-06-13 07:53:00,48.0,10.0,-100.00,North,-999,-999.0,-999.0,21,-99.99,,,-99.99,,2013-06-13 14:53:00,
2013-06-13 08:01:00,48.0,10.0,-100.00,SE,131,1.0,5.0,21,-99.99,,,-99.99,,2013-06-13 15:01:00,
2013-06-13 08:12:00,48.0,10.0,-100.00,SE,131,1.0,5.0,21,-99.99,,,-99.99,,2013-06-13 15:12:00,
2013-06-13 08:21:00,51.0,9.0,-100.00,East,96,2.0,7.0,18,-99.99,,,-99.99,,2013-06-13 15:21:00,
2013-06-13 08:32:00,56.0,2.0,-100.00,NE,37,3.0,7.0,11,-99.99,,,-99.99,,2013-06-13 15:32:00,
2013-06-13 08:33:00,51.0,9.0,-100.00,East,96,2.0,7.0,18,-99.99,,,-99.99,,2013-06-13 15:33:00,
2013-06-13 08:43:00,51.0,9.0,-100.00,East,96,2.0,7.0,18,-99.99,,,-99.99,,2013-06-13 15:43:00,
2013-06-13 08:53:00,56.0,3.0,-100.00,North,-999,-999.0,-999.0,11,-99.99,,,-99.99,,2013-06-13 15:53:00,
2013-06-13 09:01:00,56.0,2.0,-100.00,NE,37,3.0,7.0,11,-99.99,,,-99.99,,2013-06-13 16:01:00,
2013-06-13 09:11:00,56.0,2.0,-100.00,NE,37,3.0,7.0,11,-99.99,,,-99.99,,2013-06-13 16:11:00,
2013-06-13 09:22:00,56.0,2.0,-100.00,NE,37,3.0,7.0,11,-99.99,,,-99.99,,2013-06-13 16:22:00,
2013-06-13 10:32:00,57.0,2.0,-100.00,North,-999,-999.0,-999.0,10,-99.99,,,-99.99,,2013-06-13 17:32:00,
2013-06-13 10:43:00,57.0,1.0,-100.00,NW,322,2.0,6.0,10,-99.99,,,-99.99,,2013-06-13 17:43:00,
2013-06-13 10:53:00,59.0,5.0,-100.00,North,353,2.0,5.0,11,-99.99,,,-99.99,,2013-06-13 17:53:00,
2013-06-13 11:02:00,59.0,5.0,-100.00,North,353,2.0,5.0,11,-99.99,,,-99.99,,2013-06-13 18:02:00,
2013-06-13 11:11:00,59.0,5.0,-100.00,WSW,253,2.0,7.0,11,-99.99,,,-99.99,,2013-06-13 18:11:00,
2013-06-13 11:21:00,62.0,5.0,-100.00,North,352,2.0,5.0,10,-99.99,,,-99.99,,2013-06-13 18:21:00,
2013-06-13 11:22:00,59.0,5.0,-100.00,WSW,253,2.0,7.0,11,-99.99,,,-99.99,,2013-06-13 18:22:00,
2013-06-13 11:33:00,60.0,5.0,-100.00,North,7,2.0,7.0,11,-99.99,,,-99.99,,2013-06-13 18:33:00,
2013-06-13 11:43:00,60.0,5.0,-100.00,North,7,2.0,7.0,11,-99.99,,,-99.99,,2013-06-13 18:43:00,
2013-06-13 11:52:00,62.0,5.0,-100.00,North,352,2.0,5.0,10,-99.99,,,-99.99,,2013-06-13 18:52:00,
2013-06-13 12:01:00,62.0,5.0,-100.00,North,352,2.0,5.0,10,-99.99,,,-99.99,,2013-06-13 19:01:00,
2013-06-13 12:11:00,62.0,5.0,-100.00,North,352,2.0,5.0,10,-99.99,,,-99.99,,2013-06-13 19:11:00,
2013-06-13 12:33:00,65.0,13.0,-100.00,NNW,347,2.0,6.0,13,-99.99,,,-99.99,,2013-06-13 19:33:00,
2013-06-13 12:43:00,65.0,13.0,-100.00,NNW,347,2.0,6.0,13,-99.99,,,-99.99,,2013-06-13 19:43:00,
2013-06-13 12:53:00,65.0,13.0,-100.00,NNW,347,2.0,6.0,13,-99.99,,,-99.99,,2013-06-13 19:53:00,
2013-06-13 13:01:00,65.0,13.0,-100.00,NNW,347,2.0,6.0,13,-99.99,,,-99.99,,2013-06-13 20:01:00,
2013-06-13 13:30:00,67.0,15.0,-100.00,North,350,3.0,12.0,13,-99.99,,,-99.99,,2013-06-13 20:30:00,
2013-06-13 13:53:00,67.0,15.0,-100.00,North,-999,-999.0,-999.0,13,-99.99,,,-99.99,,2013-06-13 20:53:00,
2013-06-13 14:01:00,67.0,15.0,-100.00,North,350,3.0,12.0,13,-99.99,,,-99.99,,2013-06-13 21:01:00,
2013-06-13 14:11:00,67.0,15.0,-100.00,North,350,3.0,12.0,13,-99.99,,,-99.99,,2013-06-13 21:11:00,
2013-06-13 14:22:00,67.0,15.0,-100.00,North,350,3.0,12.0,13,-99.99,,,-99.99,,2013-06-13 21:22:00,
2013-06-13 14:43:00,65.0,15.0,-100.00,NNE,17,5.0,13.0,14,-99.99,,,-99.99,,2013-06-13 21:43:00,
2013-06-13 14:52:00,65.0,15.0,-100.00,NNE,17,5.0,13.0,14,-99.99,,,-99.99,,2013-06-13 21:52:00,
2013-06-13 15:01:00,67.0,18.0,-100.00,North,11,5.0,10.0,15,-99.99,,,-99.99,,2013-06-13 22:01:00,
2013-06-13 15:11:00,67.0,18.0,-100.00,North,11,5.0,10.0,15,-99.99,,,-99.99,,2013-06-13 22:11:00,
2013-06-13 15:22:00,67.0,18.0,-100.00,North,11,5.0,10.0,15,-99.99,,,-99.99,,2013-06-13 22:22:00,
2013-06-13 15:32:00,67.0,18.0,-100.00,North,11,5.0,10.0,15,-99.99,,,-99.99,,2013-06-13 22:32:00,
2013-06-13 15:42:00,67.0,21.0,-100.00,NNE,13,5.0,13.0,17,-99.99,,,-99.99,,2013-06-13 22:42:00,
2013-06-13 15:52:00,67.0,22.0,-100.00,NNE,21,6.0,10.0,18,-99.99,,,-99.99,,2013-06-13 22:52:00,
2013-06-13 16:01:00,67.0,22.0,-100.00,NNE,21,6.0,10.0,18,-99.99,,,-99.99,,2013-06-13 23:01:00,
2013-06-13 16:11:00,66.0,24.0,-100.00,NNE,20,5.0,12.0,20,-99.99,,,-99.99,,2013-06-13 23:11:00,
2013-06-13 16:22:00,66.0,24.0,-100.00,NNE,20,5.0,12.0,20,-99.99,,,-99.99,,2013-06-13 23:22:00,
2013-06-13 16:32:00,66.0,28.0,-100.00,NNE,18,5.0,12.0,24,-99.99,,,-99.99,,2013-06-13 23:32:00,
2013-06-13 16:41:00,66.0,23.0,-100.00,NNE,23,3.0,7.0,19,-99.99,,,-99.99,,2013-06-13 23:41:00,
2013-06-13 16:43:00,66.0,28.0,-100.00,NNE,18,5.0,12.0,24,-99.99,,,-99.99,,2013-06-13 23:43:00,
2013-06-13 16:52:00,65.0,16.0,-100.00,NNE,16,6.0,10.0,15,-99.99,,,-99.99,,2013-06-13 23:52:00,
2013-06-13 17:01:00,65.0,16.0,-100.00,NNE,16,6.0,10.0,15,-99.99,,,-99.99,,2013-06-14 00:01:00,
2013-06-13 17:11:00,66.0,23.0,-100.00,NNE,23,3.0,7.0,19,-99.99,,,-99.99,,2013-06-14 00:11:00,
2013-06-13 17:22:00,66.0,23.0,-100.00,NNE,23,3.0,7.0,19,-99.99,,,-99.99,,2013-06-14 00:22:00,
2013-06-13 17:33:00,66.0,23.0,-100.00,NNE,23,3.0,7.0,19,-99.99,,,-99.99,,2013-06-14 00:33:00,
2013-06-13 17:53:00,65.0,19.0,-100.00,NNE,18,3.0,7.0,17,-99.99,,,-99.99,,2013-06-14 00:53:00,
2013-06-13 18:01:00,65.0,19.0,-100.00,NNE,18,3.0,7.0,17,-99.99,,,-99.99,,2013-06-14 01:01:00,
2013-06-13 18:11:00,65.0,19.0,-100.00,NNE,18,3.0,7.0,17,-99.99,,,-99.99,,2013-06-14 01:11:00,
2013-06-13 18:22:00,65.0,23.0,-100.00,NNE,20,4.0,9.0,20,-99.99,,,-99.99,,2013-06-14 01:22:00,
2013-06-13 18:32:00,65.0,23.0,-100.00,NNE,20,4.0,9.0,20,-99.99,,,-99.99,,2013-06-14 01:32:00,
2013-06-13 18:43:00,63.0,20.0,-100.00,NNE,24,4.0,10.0,19,-99.99,,,-99.99,,2013-06-14 01:43:00,
2013-06-13 18:52:00,63.0,20.0,-100.00,NNE,24,4.0,10.0,19,-99.99,,,-99.99,,2013-06-14 01:52:00,
2013-06-13 19:01:00,62.0,23.0,-100.00,NNE,28,4.0,8.0,22,-99.99,,,-99.99,,2013-06-14 02:01:00,
2013-06-13 19:11:00,62.0,23.0,-100.00,NNE,28,4.0,8.0,22,-99.99,,,-99.99,,2013-06-14 02:11:00,
2013-06-13 19:22:00,62.0,24.0,-100.00,NNE,25,3.0,9.0,23,-99.99,,,-99.99,,2013-06-14 02:22:00,
2013-06-13 19:32:00,62.0,24.0,-100.00,NNE,25,3.0,9.0,23,-99.99,,,-99.99,,2013-06-14 02:32:00,
2013-06-13 19:43:00,62.0,24.0,-100.00,NNE,25,3.0,9.0,23,-99.99,,,-99.99,,2013-06-14 02:43:00,
2013-06-13 19:52:00,59.0,33.0,-100.00,North,-999,-999.0,-999.0,38,-99.99,,,-99.99,,2013-06-14 02:52:00,
2013-06-13 20:02:00,59.0,33.0,-100.00,NNE,30,3.0,10.0,38,-99.99,,,-99.99,,2013-06-14 03:02:00,
2013-06-13 20:11:00,59.0,33.0,-100.00,NNE,30,3.0,10.0,38,-99.99,,,-99.99,,2013-06-14 03:11:00,
2013-06-13 20:22:00,58.0,36.0,-100.00,NNE,31,2.0,4.0,44,-99.99,,,-99.99,,2013-06-14 03:22:00,
2013-06-13 20:34:00,58.0,36.0,-100.00,NNE,31,2.0,4.0,44,-99.99,,,-99.99,,2013-06-14 03:34:00,
2013-06-13 21:33:00,55.0,31.0,-100.00,ENE,59,3.0,7.0,40,-99.99,,,-99.99,,2013-06-14 04:33:00,
2013-06-13 21:43:00,55.0,31.0,-100.00,ENE,59,3.0,7.0,40,-99.99,,,-99.99,,2013-06-14 04:43:00,
2013-06-13 21:53:00,52.0,28.0,-100.00,South,178,1.0,2.0,40,-99.99,,,-99.99,,2013-06-14 04:53:00,
2013-06-13 22:02:00,52.0,28.0,-100.00,South,178,1.0,2.0,40,-99.99,,,-99.99,,2013-06-14 05:02:00,
2013-06-13 22:11:00,51.0,29.0,-100.00,SE,140,0.0,3.0,42,-99.99,,,-99.99,,2013-06-14 05:11:00,
2013-06-13 22:22:00,51.0,29.0,-100.00,SE,140,0.0,3.0,42,-99.99,,,-99.99,,2013-06-14 05:22:00,
2013-06-13 22:33:00,49.0,25.0,-100.00,SSE,158,0.0,2.0,38,-99.99,,,-99.99,,2013-06-14 05:33:00,
2013-06-13 22:43:00,49.0,25.0,-100.00,SSE,158,0.0,2.0,38,-99.99,,,-99.99,,2013-06-14 05:43:00,
2013-06-13 22:52:00,49.0,23.0,-100.00,South,169,1.0,3.0,36,-99.99,,,-99.99,,2013-06-14 05:52:00,
2013-06-13 23:02:00,49.0,23.0,-100.00,South,169,1.0,3.0,36,-99.99,,,-99.99,,2013-06-14 06:02:00,
2013-06-13 23:12:00,50.0,21.0,-100.00,South,171,1.0,2.0,31,-99.99,,,-99.99,,2013-06-14 06:12:00,
2013-06-13 23:22:00,50.0,21.0,-100.00,South,171,1.0,2.0,31,-99.99,,,-99.99,,2013-06-14 06:22:00,
2013-06-13 23:33:00,48.0,20.0,-100.00,SE,138,0.0,3.0,32,-99.99,,,-99.99,,2013-06-14 06:33:00,
2013-06-13 23:43:00,48.0,20.0,-100.00,SE,138,0.0,3.0,32,-99.99,,,-99.99,,2013-06-14 06:43:00,
2013-06-13 23:52:00,48.0,22.0,-100.00,SSE,158,0.0,2.0,35,-99.99,,,-99.99,,2013-06-14 06:52:00,